Regional Weather Roundup
Issued by NWS

Home | Current Version | Previous Version | Text Only | Print | Product List | Glossary Off
Versions: 1 2 3 4 5 6 7 8 9 10 11 12 13 14 15 16 17 18 19 20 21 22 23 24 25 26 27 28 29 30 31 32 33 34 35 36 37 38 39 40 41 42 43 44 45 46 47 48 49 50

000
ASUS43 KMPX 200601
RWRMN
WEATHER ROUNDUP FOR MINNESOTA
NATIONAL WEATHER SERVICE TWIN CITIES/CHANHASSEN MN
100 AM CDT SUN APR 20 2014


NOTE: "FAIR" INDICATES FEW OR NO CLOUDS BELOW 12,000 FEET WITH NO
SIGNIFICANT WEATHER AND/OR OBSTRUCTIONS TO VISIBILITY. N/A MEANS
CURRENT SKY AND/OR WEATHER CONDITIONS ARE NOT AVAILABLE.

MNZ060>063-068>070-200700-
   Twin Cities Metro

CITY           SKY/WX    TMP DP  RH WIND       PRES   REMARKS
TWIN CITIES    LGT RAIN  51  50  96 CALM      30.02S FOG
6HR MIN TEMP:  50; 6HR MAX TEMP:  61; 6HR PCP:  0.11;

ST PAUL        LGT RAIN  53  52  96 CALM      30.02S VSB 1
CRYSTAL        CLOUDY    52  49  89 CALM      30.01R FOG
BLAINE         CLOUDY    54  50  87 CALM      30.01S
EDEN PRAIRIE   CLOUDY    53  52  96 SW3       30.00F FOG
6HR MIN TEMP:  53; 6HR MAX TEMP:  62; 6HR PCP:  0.08;

LAKEVILLE      LGT RAIN  52  52 100 CALM      30.01F
SOUTH ST PAUL  LGT RAIN  57  55  94 CALM      30.01S VSB 1/2
LAKE ELMO      LGT RAIN  52  52 100 S3        30.03S VSB 1/4
$$
MNZ001>005-007-008-013>017-022>024-027-028-200700-
   Northwest Minnesota

CITY           SKY/WX    TMP DP  RH WIND       PRES   REMARKS
BEMIDJI        FAIR      40  35  83 W6        30.00S
HALLOCK        CLOUDY    36  34  93 CALM      29.99S
ROSEAU         FAIR      37  32  81 W6        29.99R
WARROAD        FAIR      37  34  87 W5        29.99R
THIEF RVR FALL FAIR      39  32  75 W6        30.01S
CROOKSTON      FAIR      39  34  81 NW8       30.02R
FOSSTON        FAIR      36  30  80 CALM      30.02R
DETROIT LAKES  FAIR      43  37  81 CALM      30.03R
MOORHEAD       FAIR      41  39  93 NE5       30.03R
PARK RAPIDS    FAIR      42  36  79 NW6       30.00R
$$
MNZ006-009>011-018-025>026-200700-
   North Central Minnesota

CITY           SKY/WX    TMP DP  RH WIND       PRES   REMARKS
BAUDETTE       FAIR      39  34  82 W3        29.98R
FLAG ISLAND    FAIR      37  30  75 SW8       29.95R
INTL FALLS     FAIR      40  35  83 W6        29.96R
6HR MIN TEMP:  40; 6HR MAX TEMP:  60;

WASKISH        FAIR      39  36  87 SW9       29.99R
BIG FORK       FAIR      36  30  80 CALM      29.99R
LONGVILLE      FAIR      39  32  75 NW3       30.00R
GRAND RAPIDS   FAIR      39  34  81 CALM      29.99R
CRANE LAKE     FAIR      28  27  93 S3        29.98R
ORR            FAIR      41  36  81 CALM      29.95R
COOK           FAIR      39  36  87 CALM      29.98S
$$
MNZ012-019>021-037-200700-
   Northeast Minnesota

CITY           SKY/WX    TMP DP  RH WIND       PRES   REMARKS
DULUTH         FAIR      32  28  85 S3        29.99S
6HR MIN TEMP:  32; 6HR MAX TEMP:  41;

ELY            FAIR      39  36  87 CALM      29.97R
HIBBING        FAIR      31  29  92 CALM      29.98R
EVELETH        FAIR      30  30 100 CALM      29.99S FOG
DULUTH HARBOR  FAIR      30  28  93 CALM      30.04R
TWO HARBORS    FAIR      28  23  80 CALM      29.99R
SILVER BAY     FAIR      27  27 100 CALM      29.98F
GRAND MARAIS     N/A     31  29  92 CALM      30.01F
G MARAIS ARPRT FAIR      28  25  86 CALM      29.99F FOG
$$
MNZ029>031-032-039>041-046>048-054>057-064-200700-
   West Central Minnesota

CITY           SKY/WX    TMP DP  RH WIND       PRES   REMARKS
FERGUS FALLS   FAIR      46  36  66 NE7       29.99R
WHEATON        FAIR      46  37  71 NW6       30.02S
MORRIS         FAIR      45  36  70 S3        29.98F
ALEXANDRIA     FAIR      46  32  58 CALM      30.00S
ELBOW LAKE     FAIR      49  33  55 N3        29.99R
WADENA         FAIR      41  30  65 NW6       30.00R
GLENWOOD       FAIR      46  37  71 S5        30.00F
APPLETON       FAIR      43  36  75 CALM      29.99F
BENSON         FAIR      39  36  87 CALM      30.00S
ORTONVILLE     FAIR      48  28  46 CALM      29.99F
MADISON        FAIR      48  36  61 CALM      30.00S
WILLMAR        FAIR      43  39  87 SE3       30.02S
$$
MNZ033>034-036-042>043-049>051-058-059-200700-
   Central Minnesota

CITY           SKY/WX    TMP DP  RH WIND       PRES   REMARKS
ST CLOUD       FAIR      38  36  92 CALM      30.01S FOG
6HR MIN TEMP:  38; 6HR MAX TEMP:  59;

SAUK CENTRE    FAIR      43  36  76 SE5       30.00S
PAYNESVILLE    FAIR      38  36  92 CALM      30.02S
AITKIN         FAIR      45  37  76 CALM      29.97S
PINE RIVER     FAIR      36  28  75 NW5       30.03R
BRAINERD       FAIR      39  31  72 CALM      29.99S
STAPLES        FAIR      43  30  61 NW6       30.00R
LONG PRAIRIE   FAIR      41  36  81 CALM      30.01R
LITTLE FALLS   FAIR      43  36  75 CALM      30.00S
LITCHFIELD     MOCLDY    46  46 100 CALM      30.02S
BUFFALO        FAIR      45  42  89 CALM      30.02S
MAPLE LAKE     MOCLDY    44  43  96 CALM      30.02S FOG
$$
MNZ037-044-045-052-053-200700-
   East Central Minnesota

CITY           SKY/WX    TMP DP  RH WIND       PRES   REMARKS
PRINCETON      FOG       36  36 100 CALM      30.02R VSB 1/2
MORA           FAIR      34  32  93 CALM      30.03S FOG
CAMBRIDGE      FAIR      37  30  75 CALM      29.99F HAZE
RUSH CITY      FAIR      36  34  93 CALM      30.01S
MOOSE LAKE     FAIR      32  28  86 CALM      29.99S
HINCKLEY       FAIR      32  32 100 CALM      30.01S FOG
CLOQUET        FAIR      30  28  93 CALM      30.00S
MCGREGOR       FAIR      39  37  93 S5        29.99S
$$
MNZ071>073-080-081-089-090-097-098-200700-
   Southwest Minnesota

CITY           SKY/WX    TMP DP  RH WIND       PRES   REMARKS
MONTEVIDEO     FAIR      48  39  71 SW6       30.01S
GRANITE FALLS  FAIR      42  37  83 S8        30.03S
CANBY          FAIR      46  32  58 SW5       30.01F
MARSHALL       FAIR      50  36  57 S6        30.01S
REDWOOD FALLS  CLOUDY    54  45  71 S6        30.01S
OLIVIA         FAIR      50  45  81 S6        30.01S
PIPESTONE      FAIR      54  32  43 E3        30.02S
WINDOM         LGT RAIN  54  45  71 CALM      30.03S
WORTHINGTON    FAIR      54  43  66 NE3       30.05R
JACKSON        CLOUDY    52  45  76 NE5       30.03S
TRACY          CLOUDY    56  43  61 CALM      30.02F
SLAYTON        CLOUDY    53  42  67 CALM      30.03F
$$
MNZ065>067-074>077-082>085-091>093-200700-
   South Central Minnesota

CITY           SKY/WX    TMP DP  RH WIND       PRES   REMARKS
MANKATO        CLOUDY    55  48  76 NE5       30.02S
NEW ULM        LGT RAIN  54  52  94 CALM      30.02S
ST JAMES       MOCLDY    52  48  87 NW7       30.02F
FAIRMONT       CLOUDY    55  46  71 N6        30.03F
GLENCOE        LGT RAIN  52  47  84 CALM      30.01F
FARIBAULT      CLOUDY    55  52  88 NW5       30.02S HAZE
OWATONNA       CLOUDY    54  52  94 CALM      30.02S
WASECA         CLOUDY    54  52  94 N5        30.04R FOG
ALBERT LEA     CLOUDY    64  45  48 S12G18    30.01S
$$
MNZ078>079-086>088-094>096-200700-
   Southeast Minnesota

CITY           SKY/WX    TMP DP  RH WIND       PRES   REMARKS
ROCHESTER      CLOUDY    59  45  59 S16       30.03S
6HR MIN TEMP:  59; 6HR MAX TEMP:  66;

RED WING       CLOUDY    54  52  94 CALM      30.01S
STANTON        LGT RAIN  53  51  92 CALM      30.01R
DODGE CENTER   CLOUDY    63  45  51 W12       30.03R
WINONA           N/A    N/A N/A N/A MISG        N/A
AUSTIN         CLOUDY    61  45  55 S8        30.03R
PRESTON        CLOUDY    61  44  53 S14G22    30.05S
$$
ABBREVIATIONS USED IN REMARKS
   TC - TEMPERATURES IN CELSIUS
  WCI - WIND CHILL INDEX
   HX - HEAT INDEX
  VSB - VISIBILITY
$$



USA.gov is the U.S. government's official web portal to all federal, state and local government web resources and services.